User: anonymous
Location: Unspecified
(0.0000°N, 0.0000°E)
Time: 02:44:24
(UTC+02:00)
Language:

Cosmos 1933 - Orbit

View from above orbital plane
View from above orbital plane
View from above satellite
View from above satellite

Ground track
Ground track

The orbit data is extracted from the following two-line orbital elements,

1 18958U 88020A   14114.14358826  .00002113  00000-0  16599-3 0  2888
2 18958 082.5283 131.7917 0011370 221.4187 138.6177 15.00387566418879
Epoch (UTC): 24 April 2014 03:26:46
Eccentricity: 0.0011370
inclination: 82.5283°
perigee height: 558 km
apogee height: 573 km
right ascension of ascending node: 131.7917°
argument of perigee: 221.4187°
revolutions per day: 15.00387566
mean anomaly at epoch: 138.6177°
orbit number at epoch: 41887

The dashed part of the orbit path shows where the satellite is in the earth's shadow,  

DLR